www.pogodaiklimat.ru

Погода и климат >> Архив погоды >> Канада >> Medicine Hat Arpt


ПОГОДА в Medicine Hat Arpt

  • Прогноз погоды в Medicine Hat Arpt
  • Монитор погоды в Medicine Hat Arpt
  • Климат города

АРХИВ ПОГОДЫ в Medicine Hat Arpt

Время (UTC), дата Ветер
(напр.,м/с)
 
Видим.   Явления Облачность Т
(С)
Тd
(С)
f
(%)
Тe
(С)
Тes
(С)
Комфортность P
(гПа)
Po
(гПа)
Тmin
(С)
Tmax
(С)
R
(мм)
R24
(мм)
S
(см)
00 11.01 Ю 3 н/о {осадки} н/о -32.8 -36.2 71 -42 -42 опасность
обморожения
1016.5 1006.4 -34.0 -28.3 0.3
03 11.01 Ю 4 н/о н/о -34.6 -38.1 70 -47 -47 опасность
обморожения
1016.9 1006.8 0.4
06 11.01 ЮЗ 3 н/о {осадки} н/о -35.2 -38.9 69 -45 -45 опасность
обморожения
1017.4 1007.2 -35.9 -24.3 3 10
09 11.01 С 1 н/о н/о -34.1 -37.7 70 -39 -39 опасность
обморожения
1018.3 1008.1
12 11.01 н/о {осадки} н/о -32.3 -35.6 72 1017.5 1007.3 -36.0 -24.3 1 19
15 11.01 С 6 н/о н/о -32.7 -36.1 71 -47 -47 опасность
обморожения
1015.1 1004.9 2
18 11.01 С 4 н/о {осадки} н/о -31.8 -35.0 73 -43 -43 опасность
обморожения
1011.6 1001.5 -36.0 -31.6 2
21 11.01 С 8 н/о {осадки} н/о -31.6 -34.8 73 -48 -48 опасность
обморожения
1007.0 996.9 0.7
00 12.01 С 8 н/о {осадки} н/о -32.6 -36.0 72 -49 -49 опасность
обморожения
1003.1 993.1 -36.0 -30.4 0.7
03 12.01 С 11 н/о {осадки} н/о -28.6 -31.6 75 -45 -45 опасность
обморожения
1000.2 990.3 0.5
06 12.01 С 10 н/о {осадки} н/о -27.6 -30.4 77 -44 -44 опасность
обморожения
998.8 988.9 -36.0 -27.6 0.7 3
09 12.01 С 8 н/о н/о -27.0 -29.7 78 -41 -41 опасность
обморожения
999.7 989.8 0.2
12 12.01 С 6 н/о {осадки} н/о -27.2 -29.9 78 -40 -40 опасность
обморожения
1000.8 990.9 -32.6 -27.6 0.2 19
15 12.01 н/о н/о -26.8 -29.4 79 1001.7 991.8
18 12.01 С 9 н/о н/о -26.0 -28.6 79 -41 -41 опасность
обморожения
1002.3 992.5 -33.0 -25.9
21 12.01 С 18 н/о н/о -24.5 -26.9 80 -43 -43 опасность
обморожения
1002.4 992.6
00 13.01 С 15 н/о н/о -24.7 -27.2 80 -43 -43 опасность
обморожения
1003.6 993.8 -27.6 -23.7
03 13.01 С 16 н/о н/о -24.1 -26.5 80 -42 -42 опасность
обморожения
1004.1 994.3
06 13.01 СВ 14 н/о н/о -24.1 -26.5 80 -41 -41 опасность
обморожения
1004.2 994.4 -27.6 -23.5 22
09 13.01 С 16 н/о н/о -24.6 -27.0 80 -43 -43 опасность
обморожения
1004.2 994.4
12 13.01 С 13 н/о н/о -22.6 -24.7 83 -39 -39 опасность
обморожения
1004.7 994.9 -25.1 -23.5 19
15 13.01 С 13 н/о н/о -26.6 -29.2 79 -44 -44 опасность
обморожения
1006.4 996.5
18 13.01 СВ 10 н/о {осадки} н/о -28.3 -31.1 77 -45 -45 опасность
обморожения
1007.6 997.7 -29.2 -22.2 1
21 13.01 С 10 н/о н/о -25.6 -28.2 79 -41 -41 опасность
обморожения
1008.3 998.4 0.4
00 14.01 н/о {осадки} н/о -24.7 -27.0 81 1009.9 1000.1 -29.2 -22.4 0.4
03 14.01 С 8 н/о {осадки} н/о -22.4 -24.6 82 -36 -36 опасность
обморожения
1011.3 1001.4 0.6
06 14.01 С 10 н/о {осадки} н/о -22.5 -24.6 83 -37 -37 опасность
обморожения
1012.7 1002.8 -29.2 -22.1 0.6 7
09 14.01 С 12 н/о н/о -22.7 -24.8 83 -38 -38 опасность
обморожения
1015.1 1005.2
12 14.01 С 8 н/о н/о -23.0 -25.2 82 -36 -36 опасность
обморожения
1017.7 1007.8 -24.6 -22.1 19
15 14.01 СВ 8 н/о н/о -24.3 -26.6 81 -38 -38 опасность
обморожения
1018.4 1008.5
18 14.01 н/о н/о -21.8 -23.9 83 1019.8 1009.9 -28.3 -21.8
21 14.01 С 8 н/о н/о -22.0 -24.0 84 -35 -35 опасность
обморожения
1020.9 1011.0
00 15.01 С 7 н/о н/о -22.8 -24.9 83 -35 -35 опасность
обморожения
1021.6 1011.7 -24.3 -21.6
03 15.01 С 8 н/о н/о -23.6 -25.9 81 -37 -37 опасность
обморожения
1021.7 1011.7
06 15.01 н/о н/о -22.4 -24.5 83 1021.0 1011.1 -24.3 -21.6 10
09 15.01 С 8 н/о н/о -23.9 -26.2 81 -37 -37 опасность
обморожения
1020.7 1010.8
12 15.01 С 8 н/о н/о -25.5 -28.0 79 -39 -39 опасность
обморожения
1020.7 1010.7 -26.3 -21.6 19
15 15.01 С 3 н/о н/о -26.8 -29.4 79 -36 -36 опасность
обморожения
1019.7 1009.7 0.2
18 15.01 С 4 н/о {осадки} н/о -27.2 -29.9 78 -37 -37 опасность
обморожения
1018.8 1008.8 -28.1 -22.4 0.9
21 15.01 СВ 3 н/о {осадки} н/о -29.1 -32.0 76 -39 -39 опасность
обморожения
1018.8 1008.8 0.5
00 16.01 С 9 н/о {осадки} н/о -29.0 -31.9 76 -45 -45 опасность
обморожения
1018.2 1008.2 -29.6 -24.8 0.5
03 16.01 н/о н/о -29.1 -32.0 76 1017.1 1007.1
06 16.01 н/о н/о -29.0 -31.8 77 1016.8 1006.8 -31.1 -22.4 3
09 16.01 С 3 н/о н/о -31.3 -34.5 73 -41 -41 опасность
обморожения
1017.8 1007.7 0.3
12 16.01 С 3 н/о {осадки} н/о -30.6 -33.7 74 -40 -40 опасность
обморожения
1018.3 1008.2 -31.8 -22.4 1 19
15 16.01 С 2 н/о н/о -31.0 -34.2 73 -39 -39 опасность
обморожения
1018.1 1008.0
18 16.01 С 3 н/о {осадки} н/о -31.5 -34.7 73 -41 -41 опасность
обморожения
1018.4 1008.3 -31.8 -29.0 0.5
21 16.01 С 1 н/о н/о -30.9 -34.0 74 -32 -32 опасность
обморожения
1020.1 1010.0
00 17.01 н/о н/о -31.2 -34.4 73 1022.2 1012.0 -31.8 -29.0
03 17.01 Ю 2 н/о н/о -30.7 -33.8 74 -37 -37 опасность
обморожения
1023.6 1013.4
06 17.01 ЮЗ 4 н/о н/о -30.3 -33.4 74 -41 -41 опасность
обморожения
1025.2 1015.0 -31.8 -29.0
09 17.01 Ю 5 н/о н/о -32.3 -35.6 72 -46 -46 опасность
обморожения
1027.1 1016.9 1
12 17.01 Ю 3 н/о {осадки} н/о -30.1 -33.2 74 -39 -39 опасность
обморожения
1027.9 1017.7 -32.6 -29.0 2 19
15 17.01 СЗ 1 н/о {осадки} н/о -32.3 -35.6 72 -37 -37 опасность
обморожения
1027.3 1017.1 1
18 17.01 С 3 н/о {осадки} н/о -31.8 -35.1 72 -41 -41 опасность
обморожения
1027.1 1016.9 -33.1 -29.0 2

 

Местоположение метеостанции Medicine Hat Arpt (Канада): широта 50.02 долгота -110.70 высота над уровнем моря 716 м.

В архиве по умолчанию представлена погода в Medicine Hat Arpt за последнюю неделю. Архивные данные за месяц целиком и за предыдущие месяцы, начиная с января 2011 года, Вы можете получить, выбрав интересующий диапазон дат из раскрывающегося списка и нажав кнопку "Ввод!".

Внимание! Время в таблицах - всемирное. Для получения местного времени необходимо прибавить поправку, которая в Medicine Hat Arpt равна -7 ч.

Смотрите также архив погоды в соседних городах и на ближайших метеорологических станциях:

Погода в Seven Persons Agdm (Канада) (18 км)
Погода в Irvine Agcm (Канада) (32 км)
Погода в Bow Island Agdm (Канада) (46 км)
Погода в Schuler Radar (Канада) (48 км)
Погода в Schuler Agdm (Канада) (59 км)
Погода в Bow Island (Канада) (60 км)
Погода в Manyberries Agcm (Канада) (73 км)
Погода в Grassy Lake (Канада) (73 км)
Погода в Rolling Hills (Канада) (77 км)
Погода в Foremost Agdm (Канада) (79 км)

Пояснения к столбцам:

Ветер - указаны скорость ветра в м/с - средняя за 10 мин, порывы в срок и между сроками (в фигурных скобках) и направление, откуда дует ветер: С - северный, СВ - северо-восточный, В - восточный, ЮВ - юго-восточный, Ю - южный, ЮЗ - юго-западный, З - западный, СЗ - северо-западный.
Видимость - горизонтальная дальность видимости в метрах или километрах. При видимости от 1 до 10 км при отсутствии осадков обычно наблюдается дымка, при ухудшении видимости до 1 км и менее - туман. В сухую погоду видимость может ухудшаться дымом, пылью или мглою.
Явления - указаны атмосферные явления, наблюдавшиеся в срок или в последний час перед сроком; фигурными скобками обозначены явления, наблюдавшиеся между сроками (за 1-3 часа до срока); квадратными скобками обозначены град или гололедные отложения с указанием их диаметра в мм.
Облачность - указаны через наклонную черту общая и нижняя облачность в баллах и высота нижней границы облаков в метрах; квадратными скобками обозначены формы облаков: Ci - перистые, Cs - перисто-слоистые, Cc - перисто-кучевые, Ac - высококучевые, As - высокослоистые, Sc - слоисто-кучевые, Ns - слоисто-дождевые, Cu - кучевые, Cb - кучево-дождевые. Подробнее классификацию облаков см. в Атласе облаков (PDF).
T - Температура воздуха - температура, измеренная на высоте 2 м над землей.
Td - Температура точки росы - температура, при понижении до которой содержащийся в воздухе водяной пар достигнет насыщения.
f - Относительная влажность воздуха - влажноcть воздуха, измеренная на высоте 2 м над землей.
Te - Эффективная температура - температура, которую ощущает одетый по сезону человек в тени. Характеристика душности погоды. При расчете учитывается влияние влажности воздуха и скорости ветра на теплоощущения человека.
Tes - Эффективная температура на солнце - температура, которую ощущает человек, с поправкой на солнечный нагрев. Характеристика знойности погоды. Зависит от высоты солнца над горизонтом, облачности и скорости ветра. Ночью, в пасмурную погоду, а также при ветре 12 м/с и более поправка равна нулю.
P - Атмосферное давление - приведенное к уровню моря атмосферное давление.
Po - Атмосферное давление - измеренное на уровне метеостанции атмосферное давление.
Tmin - Минимальная температура - минимум температуры воздуха на высоте 2 м над землей.
Tmax - Максимальная температура - максимум температуры воздуха на высоте 2 м над землей.
R - Количество осадков - Количество выпавших осадков за период времени, мм. При наведении курсора мыши на число - период времени, за который выпало указанное количество осадков.
R24 - Количество осадков - Количество выпавших осадков за 24 часа, мм.
S - Снежный покров - Высота снежного покрова, см. При наведении курсора мыши на число - состояние снежного покрова и степень покрытия местности в баллах.